Tracking 31030 objects as of 16-Jul-2025
HD Live streaming from Space Station
objects crossing your sky now

CZ-6A DEB

Track CZ-6A DEB now!
10-day predictions


NORAD ID: 56613
Int'l Code: 2022-151AEM
Perigee: 824.8 km
Apogee: 829.4 km
Inclination: 98.8 °
Period: 101.3 minutes
Semi major axis: 7198 km
RCS: Unknown
Launch date: November 11, 2022
Source: People's Republic of China (PRC)
Launch site: Taiyaun Space Center, China (TSC)

Note: This is SATELLITE DEBRIS
Your satellite tracking list
Your tracking list is empty




NASA's NSSDC Master Catalog

Two Line Element Set (TLE):
1 56613U 22151AEM 25197.00690825  .00000617  00000-0  30196-3 0  9992
2 56613  98.8278 217.1986 0003190 152.0691 208.0658 14.21593779120444
Source of the keplerian elements: AFSPC